GW4852 Weather Reports


Display with metric or nautical units.
time (UTC)temp
F
wind
direction
speed
MPH
gust
MPH
rain 1hr
in
rain 24hr
in
rain mn
in
humidity
%
barometer
mb
20260504060131 39 242 0.0 0.0 0.00 0.00 0.00 86 1016.2
20260504050559 36 242 0.0 0.0 0.00 0.00 0.00 85 1016.1
20260504045553 36 242 0.0 0.0 0.00 0.00 0.00 82 1016.2
20260504045048 36 242 0.0 0.0 0.00 0.00 0.00 82 1016.3
20260504044546 37 242 0.0 0.0 0.00 0.00 0.00 82 1016.2
20260504044043 37 242 0.0 0.0 0.00 0.00 0.00 83 1016.2
20260504043540 37 242 0.0 0.0 0.00 0.00 0.00 82 1016.2
20260504043037 36 242 0.0 0.0 0.00 0.00 0.00 81 1016.4
20260504042534 37 242 0.0 0.0 0.00 0.00 0.00 81 1016.3
20260504042031 36 242 0.0 0.0 0.00 0.00 0.00 81 1016.3
20260504041527 36 242 0.0 0.0 0.00 0.00 0.00 84 1016.4
20260504041023 37 242 0.0 0.0 0.00 0.00 0.00 83 1016.3
20260504040521 37 242 0.0 0.0 0.00 0.00 0.00 84 1016.3
20260504040018 37 242 0.0 0.0 0.00 0.00 0.00 82 1016.2
20260504035515 37 242 0.0 0.0 0.00 0.00 0.00 82 1016.2
20260504035010 37 242 0.0 0.0 0.00 0.00 0.00 83 1016.2
20260504034508 37 242 0.0 0.0 0.00 0.00 0.00 83 1016.3
20260504034005 38 242 0.0 0.0 0.00 0.00 0.00 81 1016.2
20260504033503 38 242 0.0 0.0 0.00 0.00 0.00 81 1016.1
20260504033000 38 242 0.0 0.0 0.00 0.00 0.00 79 1015.9
20260504032457 38 242 0.0 0.0 0.00 0.00 0.00 80 1016.0
20260504031953 38 242 0.0 0.0 0.00 0.00 0.00 78 1015.9
20260504031450 38 242 0.0 0.0 0.00 0.00 0.00 78 1015.9
20260504030947 39 242 0.0 0.0 0.00 0.00 0.00 78 1015.9
20260504030444 39 242 0.0 0.0 0.00 0.00 0.00 78 1016.0
20260504025940 39 242 0.0 0.0 0.00 0.00 0.00 77 1016.0
20260504025437 40 242 0.0 0.0 0.00 0.00 0.00 76 1016.0
20260504024934 40 242 0.0 0.0 0.00 0.00 0.00 77 1016.2
20260504024431 40 242 0.0 0.0 0.00 0.00 0.00 78 1016.0
20260504023928 40 242 0.0 0.0 0.00 0.00 0.00 76 1016.0
20260504023425 40 242 0.0 0.0 0.00 0.00 0.00 76 1016.0
20260504022920 41 242 0.0 0.0 0.00 0.00 0.00 70 1016.0
20260504022417 42 242 0.0 0.0 0.00 0.00 0.00 73 1015.9
20260504021914 41 242 0.0 0.0 0.00 0.00 0.00 71 1016.1
20260504021411 41 242 0.0 0.0 0.00 0.00 0.00 71 1015.8
20260504020908 41 242 0.0 0.0 0.00 0.00 0.00 73 1015.8
20260504020404 42 242 0.0 0.0 0.00 0.00 0.00 72 1015.8
20260504015900 42 242 0.0 0.0 0.00 0.00 0.00 70 1015.7
20260504015357 43 242 0.0 0.0 0.00 0.00 0.00 69 1015.8
20260504014853 42 242 0.0 0.0 0.00 0.00 0.00 71 1015.7
20260504014349 42 242 0.0 0.0 0.00 0.00 0.00 69 1015.6
20260504013847 42 242 0.0 0.0 0.00 0.00 0.00 72 1015.7
20260504013345 42 242 0.0 0.0 0.00 0.00 0.00 70 1015.7
20260504012841 43 242 0.0 0.0 0.00 0.00 0.00 70 1015.5
20260504012339 43 242 0.0 0.0 0.00 0.00 0.00 69 1015.4
20260504011836 43 242 0.0 0.0 0.00 0.00 0.00 67 1015.3
20260504011332 44 242 0.0 0.0 0.00 0.00 0.00 67 1015.2
20260504010828 44 242 0.0 0.0 0.00 0.00 0.00 66 1015.4
20260504010324 44 242 0.0 0.0 0.00 0.00 0.00 63 1015.2
20260504005821 45 242 0.0 0.0 0.00 0.00 0.00 62 1015.4
20260504005318 46 242 0.0 0.0 0.00 0.00 0.00 58 1015.5
20260504004816 46 242 0.0 0.0 0.00 0.00 0.00 58 1015.4
20260504004313 47 242 0.0 0.0 0.00 0.00 0.00 60 1015.4
20260504003809 47 242 0.0 0.0 0.00 0.00 0.00 56 1015.4
20260504003307 49 242 0.0 0.0 0.00 0.00 0.00 52 1015.2
20260504002803 50 242 0.0 0.0 0.00 0.00 0.00 47 1015.4
20260504002300 50 242 0.0 0.0 0.00 0.00 0.00 48 1015.3
20260504001757 52 242 0.0 1.0 0.00 0.00 0.00 43 1015.3
20260504001254 52 242 0.0 2.0 0.00 0.00 0.00 43 1015.2
20260504000751 53 220 1.0 2.0 0.00 0.00 0.00 41 1015.1
20260504000248 54 234 0.0 2.0 0.00 0.00 0.00 38 1015.2
20260503235746 54 220 0.0 1.0 0.00 0.00 0.00 38 1015.1
20260503235243 55 219 0.0 2.0 0.00 0.00 0.00 38 1015.1
20260503234741 55 241 1.0 3.0 0.00 0.00 0.00 36 1015.0
20260503234239 55 225 0.0 3.0 0.00 0.00 0.00 37 1015.0
20260503233735 56 136 1.0 2.0 0.00 0.00 0.00 36 1015.2
20260503233231 56 233 2.0 3.0 0.00 0.00 0.00 35 1015.0
20260503232728 57 217 1.0 3.0 0.00 0.00 0.00 34 1015.0
20260503232226 57 206 2.0 4.0 0.00 0.00 0.00 34 1015.0
20260503231724 57 267 3.0 4.0 0.00 0.00 0.00 35 1014.9
20260503231220 57 210 2.0 3.0 0.00 0.00 0.00 34 1015.0
20260503230716 58 339 1.0 2.0 0.00 0.00 0.00 35 1015.0
20260503230214 58 197 4.0 4.0 0.00 0.00 0.00 32 1014.9
20260503225711 58 152 2.0 4.0 0.00 0.00 0.00 35 1014.9
20260503225211 58 236 4.0 9.0 0.00 0.00 0.00 35 1014.9
20260503224709 58 317 0.0 3.0 0.00 0.00 0.00 34 1014.9
20260503224207 58 309 0.0 0.0 0.00 0.00 0.00 37 1014.8
20260503223704 58 273 0.0 3.0 0.00 0.00 0.00 33 1014.8
20260503223201 59 251 3.0 6.0 0.00 0.00 0.00 33 1014.8
20260503222658 59 248 1.0 4.0 0.00 0.00 0.00 32 1014.9
20260503222155 60 215 0.0 8.0 0.00 0.00 0.00 32 1014.9
20260503221654 60 230 4.0 6.0 0.00 0.00 0.00 32 1015.0
20260503221150 60 257 2.0 8.0 0.00 0.00 0.00 31 1014.9
20260503220647 60 222 2.0 3.0 0.00 0.00 0.00 31 1015.1
20260503220144 60 290 4.0 7.0 0.00 0.00 0.00 29 1014.8
20260503215641 60 261 4.0 7.0 0.00 0.00 0.00 30 1014.8
20260503215137 60 244 3.0 8.0 0.00 0.00 0.00 29 1015.0
20260503214636 60 248 4.0 7.0 0.00 0.00 0.00 30 1014.9
20260503214132 60 259 6.0 8.0 0.00 0.00 0.00 32 1014.9
20260503213626 59 254 2.0 9.0 0.00 0.00 0.00 32 1014.9
20260503213122 60 240 3.0 11.0 0.00 0.00 0.00 32 1015.1
20260503212620 60 268 4.0 10.0 0.00 0.00 0.00 33 1015.0
20260503212117 62 225 3.0 4.0 0.00 0.00 0.00 29 1014.9
20260503211614 61 211 5.0 8.0 0.00 0.00 0.00 33 1015.0
20260503211109 62 128 2.0 4.0 0.00 0.00 0.00 31 1015.0
20260503210601 61 191 3.0 4.0 0.00 0.00 0.00 31 1015.1
20260503210056 61 193 4.0 6.0 0.00 0.00 0.00 33 1014.9
20260503205553 62 56 5.0 8.0 0.00 0.00 0.00 32 1014.7
20260503205049 62 181 2.0 4.0 0.00 0.00 0.00 30 1014.9
20260503204546 60 260 3.0 4.0 0.00 0.00 0.00 32 1015.0
20260503204043 60 354 1.0 6.0 0.00 0.00 0.00 33 1015.2
20260503203535 61 229 4.0 6.0 0.00 0.00 0.00 31 1014.9
20260503203032 61 328 3.0 4.0 0.00 0.00 0.00 34 1015.2
20260503202530 62 28 2.0 9.0 0.00 0.00 0.00 30 1015.2
20260503202027 62 257 5.0 7.0 0.00 0.00 0.00 31 1015.2
20260503201520 60 214 1.0 11.0 0.00 0.00 0.00 34 1015.2
20260503201017 62 274 2.0 7.0 0.00 0.00 0.00 31 1015.3
20260503200513 62 209 2.0 8.0 0.00 0.00 0.00 33 1015.4
20260503200009 60 287 2.0 8.0 0.00 0.00 0.00 33 1015.5
20260503195506 61 293 4.0 6.0 0.00 0.00 0.00 33 1015.5
20260503195002 62 35 4.0 8.0 0.00 0.00 0.00 32 1015.5
20260503194500 61 235 6.0 7.0 0.00 0.00 0.00 29 1015.7
20260503193955 62 234 3.0 6.0 0.00 0.00 0.00 33 1015.6
20260503193451 60 268 2.0 6.0 0.00 0.00 0.00 32 1015.8
20260503192947 59 186 3.0 14.0 0.00 0.00 0.00 35 1015.9
20260503192444 59 316 3.0 11.0 0.00 0.00 0.00 38 1015.8
20260503191939 60 90 1.0 11.0 0.00 0.00 0.00 33 1016.0
20260503191437 61 68 4.0 7.0 0.00 0.00 0.00 33 1015.8
20260503190933 61 215 6.0 8.0 0.00 0.00 0.00 30 1015.9
20260503190431 60 280 3.0 10.0 0.00 0.00 0.00 33 1015.9
20260503185927 60 90 3.0 8.0 0.00 0.00 0.00 35 1016.1
20260503185424 58 194 2.0 4.0 0.00 0.00 0.00 34 1016.1
20260503184923 59 281 6.0 10.0 0.00 0.00 0.00 30 1016.2
20260503184420 58 254 4.0 8.0 0.00 0.00 0.00 32 1016.3
20260503183916 57 325 5.0 11.0 0.00 0.00 0.00 32 1016.3
20260503183413 58 321 6.0 10.0 0.00 0.00 0.00 35 1016.6
20260503182910 58 315 6.0 9.0 0.00 0.00 0.00 32 1016.5
20260503182409 56 290 6.0 8.0 0.00 0.00 0.00 32 1016.5
20260503181906 57 263 6.0 13.0 0.00 0.00 0.00 34 1016.5
20260503181402 57 261 5.0 13.0 0.00 0.00 0.00 36 1016.4
20260503180859 57 323 3.0 4.0 0.00 0.00 0.00 33 1016.5
20260503180357 56 351 8.0 9.0 0.00 0.00 0.00 37 1016.4
20260503175853 57 5 2.0 10.0 0.00 0.00 0.00 34 1016.5
20260503175352 58 260 3.0 13.0 0.00 0.00 0.00 32 1016.5
20260503174847 56 279 3.0 7.0 0.00 0.00 0.00 32 1016.8
20260503174345 58 259 4.0 8.0 0.00 0.00 0.00 34 1016.7
20260503173845 58 214 3.0 10.0 0.00 0.00 0.00 35 1016.6
20260503173342 56 269 3.0 11.0 0.00 0.00 0.00 36 1016.7
20260503172838 56 225 4.0 9.0 0.00 0.00 0.00 35 1017.1
20260503172336 55 224 4.0 9.0 0.00 0.00 0.00 34 1017.1
20260503171832 56 238 3.0 9.0 0.00 0.00 0.00 35 1016.9
20260503171329 56 252 4.0 7.0 0.00 0.00 0.00 36 1016.9
20260503170826 57 246 3.0 7.0 0.00 0.00 0.00 35 1017.2
20260503170323 55 351 1.0 7.0 0.00 0.00 0.00 42 1017.2
20260503150715 52 261 3.0 7.0 0.00 0.00 0.00 44 1018.3
20260503150211 51 222 5.0 9.0 0.00 0.00 0.00 47 1018.3
20260503140136 47 296 4.0 8.0 0.00 0.00 0.00 52 1018.3
20260503131105 46 234 1.0 3.0 0.00 0.00 0.00 58 1018.6
20260503130603 46 213 3.0 4.0 0.00 0.00 0.00 58 1018.4
20260503110453 34 118 0.0 0.0 0.00 0.00 0.00 83 1017.5
20260503090338 37 230 0.0 0.0 0.00 0.00 0.00 75 1016.2
20260503081306 39 241 2.0 2.0 0.00 0.00 0.00 73 1016.0
20260503080802 39 261 0.0 1.0 0.00 0.00 0.00 74 1016.1
20260503080259 38 267 1.0 2.0 0.00 0.00 0.00 73 1016.1
20260503072736 40 212 1.0 3.0 0.00 0.00 0.00 71 1016.0
20260503072232 40 230 1.0 3.0 0.00 0.00 0.00 72 1015.9
20260503071729 40 236 2.0 4.0 0.00 0.00 0.00 71 1015.7
20260503071226 40 279 3.0 3.0 0.00 0.00 0.00 72 1015.8
20260503070722 40 195 1.0 2.0 0.00 0.00 0.00 72 1015.8
20260503070220 39 229 1.0 2.0 0.00 0.00 0.00 76 1015.7